Lebec, CA

6:32 AM PDT on August 29, 2016 (GMT -0700)
Sandberg

Weather History for KSDB - October, 2012

Change the Weather History Date:

Friday, October 26, 2012

  Actual Average Record
Temperature  
Mean Temperature 53 °F 56 °F  
Max Temperature 59 °F 64 °F 82 °F (1990)
Min Temperature 46 °F 49 °F 33 °F (2004)
Degree Days  
Heating Degree Days 12 9  
Month to date heating degree days 176 171  
Since 1 July heating degree days 181 249  
Cooling Degree Days 0 1  
Month to date cooling degree days 64 48  
Year to date cooling degree days 1345 994  
Growing Degree Days 2 (Base 50)    
Moisture  
Dew Point 18 °F    
Average Humidity 38    
Maximum Humidity 58    
Minimum Humidity 17    
Precipitation  
Precipitation 0.00 in 0.02 in 1.27 in (2004)
Month to date precipitation 0.02 0.47  
Year to date precipitation 4.36 9.17  
Since 1 July precipitation 0.09  
Sea Level Pressure  
Sea Level Pressure 30.10 in    
Wind  
Wind Speed 18 mph (ENE)    
Max Wind Speed 29 mph    
Max Gust Speed 37 mph    
Visibility 10 miles    
Events      
T = Trace of Precipitation, MM = Missing Value Source: NWS Daily Summary

Daily Weather History Graph

Daily Weather History Graph

Search for Another Location

Airport or City:

Trip Planner

Search our weather history database for the weather conditions in past years. The results will help you decide how hot, cold, wet, or windy it might be!

Date:

Astronomy

Oct. 26, 2012 Rise Set
Actual Time 7:10 AM PDT 6:06 PM PDT
Civil Twilight 6:44 AM PDT 6:32 PM PDT
Nautical Twilight 6:15 AM PDT 7:01 PM PDT
Astronomical Twilight 5:45 AM PDT 7:31 PM PDT
Moon 4:20 PM PDT (10/26) 4:17 AM PDT (10/26)
Length of Visible Light 11h 47m
Length of Day
10h 55m
Waxing Gibbous, 91% of the Moon is Illuminated
Oct 26
Waxing Gibbous
Oct 29
Full
Nov 6
Last Quarter
Nov 13
New
Nov 20
First Quarter

Hourly Weather History & Observations

Time (PDT) Temp. Windchill Dew Point Humidity Pressure Visibility Wind Dir Wind Speed Gust Speed Precip Events Conditions
12:48 AM 46.0 °F 41.9 °F 32.0 °F 58% 30.11 in 10.0 mi NNE 8.1 mph - N/A   Clear
1:48 AM 48.9 °F - 27.0 °F 43% 30.10 in 10.0 mi ENE 17.3 mph 25.3 mph N/A   Clear
2:48 AM 50.0 °F - 25.0 °F 38% 30.09 in 10.0 mi ENE 19.6 mph 28.8 mph N/A   Clear
3:48 AM 48.9 °F - 21.9 °F 35% 30.09 in 10.0 mi East 28.8 mph 38.0 mph N/A   Clear
4:48 AM 48.0 °F - 21.9 °F 36% 30.11 in 10.0 mi East 26.5 mph 36.8 mph N/A   Clear
5:48 AM 46.9 °F - 21.0 °F 36% 30.14 in 10.0 mi East 28.8 mph 38.0 mph N/A   Clear
6:48 AM 46.0 °F 37.2 °F 21.0 °F 37% 30.15 in 10.0 mi East 26.5 mph 34.5 mph N/A   Clear
7:48 AM 46.9 °F - 19.9 °F 34% 30.14 in 10.0 mi East 29.9 mph 38.0 mph N/A   Clear
8:48 AM 48.0 °F - 19.9 °F 33% 30.17 in 10.0 mi East 27.6 mph 35.7 mph N/A   Clear
9:48 AM 50.0 °F - 19.9 °F 31% 30.19 in 10.0 mi East 23.0 mph 34.5 mph N/A   Clear
2:48 PM 59.0 °F - 19.0 °F 21% 30.08 in 10.0 mi ENE 21.9 mph 34.5 mph N/A   Unknown
3:48 PM 59.0 °F - 18.0 °F 20% 30.07 in 10.0 mi East 23.0 mph 28.8 mph N/A   Clear
4:48 PM 57.9 °F - 18.0 °F 21% 30.07 in 10.0 mi ENE 17.3 mph 27.6 mph N/A   Clear
5:48 PM 55.9 °F - 17.1 °F 22% 30.06 in 10.0 mi ENE 17.3 mph 24.2 mph N/A   Clear
6:48 PM 54.0 °F - 17.1 °F 23% 30.07 in 10.0 mi ENE 19.6 mph 27.6 mph N/A   Clear
7:48 PM 54.0 °F - 16.0 °F 22% 30.08 in 10.0 mi ENE 20.7 mph 29.9 mph N/A   Clear
8:48 PM 53.6 °F - 10.4 °F 18% 30.16 in 10.0 mi ENE 18.4 mph 29.9 mph N/A   Clear
9:48 PM 52.0 °F - 10.9 °F 19% 30.09 in 10.0 mi ENE 16.1 mph 25.3 mph N/A   Clear
10:48 PM 51.1 °F - 9.0 °F 18% 30.08 in 10.0 mi ENE 18.4 mph 27.6 mph N/A   Clear
11:48 PM 50.0 °F - 8.1 °F 18% 30.08 in 10.0 mi ENE 16.1 mph 24.2 mph N/A   Clear